Tracking 35280 objects as of 7-Sep-2026
HD Live streaming from Space Station
objects crossing your sky now

SL-23 DEB


SL-23 DEB is no longer on orbit


NORAD ID: 37757
Int'l Code: 2011-037C
Launch date: July 18, 2011
Source: Commonwealth of Independent States (former USSR) (CIS)
Launch site: TYURATAM MISSILE AND SPACE COMPLEX (TTMTR)
Decay date: 2011-08-01

Note: This is SATELLITE DEBRIS
Your satellite tracking list
Your tracking list is empty




NASA's NSSDC Master Catalog

Two Line Element Set (TLE):
1 37757U 11037C   11213.63112730  .28509162  11691-4  89061-3 0  9994
2 37757 051.4135 268.2490 0055900 130.5071 230.8399 16.36550492  2105
Source of the keplerian elements: AFSPC